{"data":{"norad_id":58390,"epoch":"2026-09-20T00:25:43.375296Z","epoch_age_seconds":185345,"freshness":"STALE","line1":"1 58390U 23178S   26263.01786314  .00003147  00000+0  10422-3 0  9991","line2":"2 58390  53.1588 174.2084 0001293  65.7407 294.3731 15.34404751159702","mean_motion":15.34404751,"eccentricity":0.0001293,"inclination_deg":53.1588,"raan_deg":174.2084,"arg_perigee_deg":65.7407,"mean_anomaly_deg":294.3731,"bstar":0.00010422,"rev_number":15970,"period_min":93.847467499141,"perigee_km":461.80460045309,"apogee_km":463.57363808754,"semimajor_km":6840.8261192703,"source":"CELESTRAK","updated_at":"2026-09-21T09:00:33.868125Z"}}